Total_Precipitation_Accumulation
0.58 0.56 0.54 0.51 0.48 0.46 0.41 0.36 0.29 0.23 0.19 0.16 0.14 0.12 0.11 0.10 0.09 0.10 0.11 0.10 0.10 0.09 0.09 0.09 0.09 0.09 0.10 0.10 0.11 0.12 0.14 0.21 0.25 0.13 0.07 0.07 0.14 0.22 0.30 0.33 0.33 0.31 0.28
0.39 0.41 0.40 0.34 0.32 0.31 0.28 0.26 0.23 0.19 0.15 0.14 0.13 0.11 0.09 0.08 0.08 0.09 0.10 0.09 0.10 0.09 0.08 0.08 0.08 0.08 0.09 0.09 0.10 0.12 0.14 0.20 0.29 0.25 0.13 0.09 0.13 0.19 0.26 0.29 0.25 0.24 0.26
0.24 0.23 0.23 0.22 0.19 0.18 0.16 0.15 0.13 0.12 0.12 0.11 0.09 0.09 0.08 0.08 0.09 0.08 0.08 0.07 0.07 0.07 0.08 0.08 0.09 0.10 0.10 0.11 0.14 0.15 0.18 0.22 0.30 0.33 0.21 0.16 0.17 0.24 0.35 0.35 0.30 0.38 0.31
0.17 0.15 0.16 0.15 0.15 0.13 0.12 0.12 0.11 0.11 0.11 0.10 0.09 0.08 0.07 0.08 0.07 0.05 0.04 0.04 0.05 0.05 0.06 0.09 0.11 0.12 0.14 0.18 0.19 0.23 0.28 0.31 0.32 0.35 0.28 0.22 0.24 0.29 0.41 0.48 0.45 0.42 0.38
0.18 0.16 0.16 0.15 0.14 0.14 0.14 0.14 0.13 0.12 0.11 0.10 0.09 0.07 0.06 0.05 0.02 0.01 0.01 0.02 0.03 0.04 0.06 0.10 0.11 0.11 0.16 0.19 0.19 0.24 0.32 0.39 0.41 0.43 0.37 0.31 0.29 0.38 0.47 0.51 0.49 0.46 0.39
0.20 0.20 0.20 0.19 0.19 0.19 0.18 0.17 0.16 0.14 0.12 0.08 0.06 0.04 0.03 0.02 0.01 0.01 0.01 0.01 0.03 0.06 0.09 0.11 0.09 0.08 0.09 0.09 0.14 0.21 0.30 0.39 0.47 0.52 0.50 0.46 0.39 0.45 0.56 0.59 0.59 0.58 0.46
0.27 0.25 0.23 0.21 0.21 0.21 0.17 0.15 0.13 0.11 0.09 0.07 0.05 0.04 0.05 0.03 0.00 0.00 0.00 0.01 0.04 0.09 0.13 0.12 0.09 0.08 0.12 0.17 0.17 0.18 0.26 0.33 0.46 0.60 0.63 0.55 0.52 0.56 0.69 0.73 0.68 0.67 0.61
0.30 0.27 0.24 0.21 0.20 0.17 0.13 0.12 0.09 0.08 0.08 0.07 0.06 0.05 0.07 0.04 0.00 0.00 0.00 0.02 0.07 0.10 0.11 0.13 0.16 0.20 0.16 0.14 0.14 0.22 0.33 0.43 0.49 0.54 0.62 0.57 0.54 0.56 0.64 0.68 0.65 0.63 0.53
0.30 0.24 0.18 0.13 0.12 0.10 0.09 0.08 0.07 0.07 0.08 0.06 0.05 0.06 0.09 0.07 0.01 0.00 0.00 0.03 0.06 0.08 0.09 0.11 0.13 0.18 0.13 0.12 0.19 0.32 0.41 0.54 0.60 0.73 0.73 0.67 0.66 0.65 0.56 0.53 0.65 0.73 0.65
0.19 0.13 0.09 0.06 0.06 0.06 0.06 0.07 0.07 0.08 0.08 0.06 0.06 0.07 0.09 0.09 0.02 0.00 0.01 0.03 0.06 0.07 0.11 0.15 0.13 0.11 0.11 0.15 0.23 0.40 0.56 0.64 0.80 1.00 0.95 0.89 0.83 0.79 0.67 0.60 0.74 0.85 0.81
0.09 0.07 0.05 0.03 0.03 0.04 0.06 0.09 0.10 0.10 0.10 0.09 0.09 0.10 0.09 0.06 0.03 0.00 0.01 0.03 0.06 0.08 0.14 0.19 0.22 0.16 0.16 0.18 0.29 0.48 0.66 0.69 0.88 1.13 1.02 0.85 0.77 0.70 0.68 0.69 0.73 0.77 0.75
0.07 0.06 0.05 0.03 0.02 0.03 0.08 0.12 0.11 0.12 0.12 0.12 0.11 0.10 0.08 0.08 0.05 0.01 0.00 0.01 0.04 0.11 0.24 0.26 0.27 0.25 0.22 0.27 0.40 0.59 0.73 0.87 1.02 1.11 0.93 0.73 0.61 0.59 0.59 0.55 0.53 0.54 0.57
0.09 0.08 0.07 0.05 0.04 0.04 0.08 0.12 0.12 0.12 0.10 0.09 0.09 0.08 0.08 0.10 0.08 0.02 0.01 0.02 0.05 0.13 0.27 0.33 0.33 0.30 0.37 0.55 0.68 0.79 0.91 1.05 1.08 0.95 0.80 0.69 0.56 0.50 0.47 0.47 0.45 0.47 0.50
0.10 0.08 0.07 0.09 0.09 0.09 0.10 0.08 0.09 0.10 0.07 0.07 0.08 0.09 0.12 0.13 0.09 0.05 0.05 0.07 0.10 0.15 0.24 0.38 0.47 0.50 0.64 0.83 0.97 1.05 1.12 1.13 0.98 0.86 0.74 0.64 0.52 0.46 0.45 0.40 0.42 0.44 0.46
0.09 0.07 0.07 0.08 0.10 0.15 0.14 0.07 0.05 0.05 0.02 0.03 0.06 0.08 0.13 0.14 0.08 0.06 0.09 0.11 0.14 0.19 0.24 0.38 0.54 0.60 0.75 0.90 1.01 1.05 1.07 1.06 0.97 0.84 0.73 0.62 0.54 0.48 0.46 0.40 0.39 0.41 0.43
0.10 0.09 0.05 0.05 0.07 0.10 0.14 0.14 0.05 0.01 0.00 0.01 0.03 0.05 0.07 0.09 0.07 0.06 0.08 0.12 0.17 0.23 0.29 0.48 0.60 0.64 0.73 0.82 0.91 0.99 0.97 0.92 0.85 0.79 0.74 0.67 0.59 0.51 0.48 0.43 0.40 0.40 0.43
0.06 0.06 0.04 0.03 0.04 0.06 0.10 0.17 0.19 0.10 0.03 0.02 0.02 0.03 0.05 0.06 0.07 0.06 0.07 0.12 0.16 0.24 0.36 0.55 0.67 0.73 0.77 0.81 0.82 0.85 0.90 0.89 0.80 0.74 0.69 0.63 0.55 0.49 0.45 0.43 0.38 0.36 0.37
0.03 0.03 0.02 0.03 0.03 0.04 0.06 0.08 0.12 0.18 0.18 0.14 0.07 0.04 0.04 0.07 0.09 0.09 0.10 0.12 0.19 0.25 0.40 0.56 0.66 0.72 0.77 0.79 0.77 0.73 0.76 0.78 0.72 0.63 0.58 0.53 0.49 0.46 0.41 0.38 0.34 0.28 0.27
0.02 0.03 0.02 0.02 0.02 0.02 0.03 0.05 0.07 0.11 0.15 0.16 0.14 0.09 0.07 0.10 0.13 0.14 0.16 0.18 0.23 0.28 0.37 0.50 0.60 0.65 0.66 0.66 0.67 0.65 0.65 0.67 0.63 0.57 0.53 0.49 0.45 0.40 0.37 0.30 0.26 0.18 0.21
0.02 0.01 0.01 0.01 0.01 0.01 0.02 0.03 0.06 0.10 0.11 0.12 0.13 0.11 0.11 0.21 0.29 0.27 0.22 0.21 0.22 0.26 0.34 0.45 0.54 0.56 0.55 0.51 0.49 0.49 0.50 0.50 0.50 0.48 0.47 0.45 0.41 0.36 0.29 0.24 0.21 0.21 0.22
0.02 0.01 0.00 0.00 0.00 0.00 0.01 0.01 0.03 0.07 0.09 0.11 0.09 0.08 0.15 0.24 0.34 0.33 0.29 0.29 0.29 0.30 0.32 0.36 0.42 0.45 0.44 0.40 0.36 0.34 0.34 0.37 0.38 0.38 0.39 0.38 0.33 0.29 0.23 0.18 0.16 0.13 0.13
0.01 0.01 0.00 0.00 0.00 0.00 0.00 0.01 0.02 0.03 0.05 0.09 0.10 0.09 0.16 0.22 0.28 0.32 0.34 0.35 0.37 0.36 0.33 0.33 0.34 0.36 0.35 0.33 0.30 0.27 0.26 0.27 0.28 0.31 0.33 0.32 0.28 0.23 0.17 0.12 0.09 0.08 0.07
0.00 0.01 0.01 0.00 0.00 0.00 0.01 0.01 0.02 0.02 0.03 0.05 0.07 0.10 0.15 0.22 0.28 0.34 0.39 0.38 0.37 0.37 0.33 0.29 0.32 0.35 0.32 0.28 0.25 0.22 0.21 0.21 0.21 0.24 0.31 0.32 0.26 0.19 0.13 0.09 0.06 0.05 0.04
0.00 0.00 0.00 0.00 0.00 0.00 0.01 0.01 0.01 0.01 0.01 0.03 0.05 0.08 0.12 0.17 0.22 0.27 0.33 0.36 0.37 0.37 0.37 0.37 0.37 0.36 0.31 0.25 0.21 0.19 0.18 0.19 0.19 0.23 0.27 0.29 0.24 0.16 0.10 0.07 0.05 0.04 0.04
0.00 0.00 0.00 0.00 0.00 0.00 0.00 0.00 0.00 0.01 0.01 0.02 0.03 0.05 0.08 0.11 0.13 0.16 0.21 0.26 0.29 0.32 0.34 0.36 0.35 0.32 0.27 0.21 0.17 0.14 0.16 0.16 0.14 0.18 0.25 0.28 0.21 0.14 0.09 0.06 0.05 0.04 0.04
0.00 0.00 0.00 0.00 0.00 0.00 0.00 0.00 0.01 0.01 0.01 0.01 0.02 0.03 0.05 0.07 0.09 0.12 0.14 0.17 0.19 0.23 0.27 0.32 0.32 0.23 0.15 0.11 0.11 0.10 0.08 0.06 0.05 0.08 0.18 0.23 0.17 0.12 0.12 0.09 0.05 0.04 0.05